This is the latest recevied weather packets stored in our database for station/object W2TAO. If no packets are shown the sender has not sent any weather packets the latest 1 day(s).
| Time | Temp. | Humidity | Pressure | Rain* | Wind** | Luminosity | Snow |
|---|---|---|---|---|---|---|---|
| 1778094821 | 15° C | 99% | 1008.1 hPa | 0 mm | - | 82 W/m² | - |
| 1778093911 | 15° C | 99% | 1008.2 hPa | 0 mm | - | 137 W/m² | - |
| 1778093608 | 15° C | 99% | 1008.2 hPa | 0 mm | - | 134 W/m² | - |
| 1778093305 | 15° C | 99% | 1008.3 hPa | 0 mm | - | 173 W/m² | - |
| 1778092092 | 14.44° C | 99% | 1008.5 hPa | 0.51 mm | - | 135 W/m² | - |
| 1778090274 | 14.44° C | 99% | 1008.6 hPa | 0 mm | - | 61 W/m² | - |
| 1778089365 | 14.44° C | 99% | 1008.5 hPa | 0 mm | - | 56 W/m² | - |
| 1778089063 | 14.44° C | 99% | 1008.6 hPa | 0.51 mm | - | 57 W/m² | - |
| 1778088153 | 14.44° C | 99% | 1008.6 hPa | 0.51 mm | - | 78 W/m² | - |
| 1778086337 | 14.44° C | 99% | 1008.8 hPa | 1.27 mm | - | 35 W/m² | - |
| 1778086034 | 14.44° C | 99% | 1008.6 hPa | 0 mm | - | 27 W/m² | - |
| 1778085731 | 14.44° C | 99% | 1008.8 hPa | 0.51 mm | - | 42 W/m² | - |
| 1778083910 | 15° C | 99% | 1009 hPa | 1.27 mm | - | 97 W/m² | - |
| 1778083608 | 15° C | 99% | 1009.1 hPa | 1.78 mm | - | 66 W/m² | - |
| 1778081562 | 15° C | 99% | 1009.4 hPa | 1.27 mm | - | 54 W/m² | - |
| 1778081259 | 15° C | 99% | 1009.3 hPa | 1.27 mm | - | 83 W/m² | - |
| 1778080048 | 14.44° C | 98% | 1009.6 hPa | 1.78 mm | - | 54 W/m² | - |
| 1778079745 | 15° C | 98% | 1009.6 hPa | 1.27 mm | - | 65 W/m² | - |
| 1778078836 | 15° C | 97% | 1009.9 hPa | 1.27 mm | - | 50 W/m² | - |
| 1778078533 | 15° C | 97% | 1010 hPa | 1.27 mm | - | 37 W/m² | - |
| 1778077928 | 15° C | 96% | 1009.9 hPa | 1.78 mm | - | 49 W/m² | - |
| 1778077324 | 15° C | 95% | 1010 hPa | 1.27 mm | - | 46 W/m² | - |
| 1778077022 | 15° C | 95% | 1010 hPa | 1.27 mm | - | 44 W/m² | - |
| 1778076417 | 15.56° C | 93% | 1010.1 hPa | 0.51 mm | - | 39 W/m² | - |
| 1778076114 | 15.56° C | 92% | 1010 hPa | 0.51 mm | - | 42 W/m² | - |
* Rain latest hour (hover to see other rain measurements)
** Current wind speed in m/s (hover to see current wind gust speed)